Content
SEND FEEDBACK

Daily
Averages
Monthly
Summary
United States of America

MINDEN, TEXAS


Home > North America > United States > Texas
Elevation: 142 meters     Latitude: 32 10N     Longitude: 094 48W

WEATHER
 
SELECT A DAY
Number of Records: 137,119;   Date Range: 10/21/08 - 7/24/14
 
SHARE

PRINT THIS DATA

[ ← Previous Day ]
WEATHER ALMANAC - 31 JANUARY, 2013
[ Next Day → ]
[ °F ]   °C
Weather ElementAverageHighLow
Temperature7.5 °C17 °C (1:35 pm)-2 °C (6:15 am)
Dewpoint-3.7 °C0 °C (9:15 pm)-8 °C (2:15 pm)
Humidity53.9 %93 % (1:35 am)18 % (2:15 pm)
Barometer1023 hPa1025.1 hPa (11:15 pm)1021.3 hPa (5:15 pm)
Wind Speed4.8 km/h18.5 km/h (11:15 am)
Wind Gust40.7 km/h (2:15 pm)
Weather ElementAverage
Visibility16.1 km
Wind DirectionE (87.9 °)

Weather ElementTotal
Precipitation---
Heating Degree Days10.8 (Base 18.3)
Averaged from 70 records on 31 January, 2013
WEATHER CONDITIONS BREAKOUT
WIND DIRECTION BREAKOUT
WEATHER BY HOUR - 31 JANUARY, 2013
[ °F ]   °C
Local TimeTemperatureDewpointHumidityBarometerVisibilityWind DirectionWind SpeedGust SpeedPrecipitationEventsConditions
12:35 AM0 °C-2 °C87 %1021.7 hPa16.1 kmCalmClear
12:55 AM0 °C-2 °C87 %1022 hPa16.1 kmCalmClear
1:15 AM0 °C-2 °C87 %1022 hPa16.1 kmCalmClear
1:35 AM-1 °C-2 °C93 %1022 hPa16.1 kmCalmClear
1:55 AM0 °C-2 °C87 %1022 hPa16.1 kmCalmClear
2:15 AM-1 °C-2 °C93 %1022 hPa16.1 kmCalmClear
2:35 AM-1 °C-2 °C93 %1022 hPa16.1 kmCalmClear
2:55 AM-1 °C-2 °C93 %1022 hPa16.1 kmCalmClear
3:15 AM-1 °C-2 °C93 %1022 hPa16.1 kmCalmClear
3:35 AM0 °C-2 °C87 %1022 hPa16.1 kmCalmClear
3:55 AM0 °C-2 °C87 %1022 hPa16.1 kmCalmClear
4:15 AM0 °C-2 °C87 %1022 hPa16.1 kmCalmClear
4:35 AM-1 °C-2 °C93 %1022 hPa16.1 kmCalmClear
4:55 AM-1 °C-3 °C86 %1022 hPa16.1 kmCalmClear
5:15 AM-1 °C-3 °C86 %1022 hPa16.1 kmCalmClear
5:35 AM-1 °C-2 °C93 %1022 hPa16.1 kmCalmClear
5:55 AM-1 °C-3 °C86 %1022 hPa16.1 kmCalmClear
6:15 AM-2 °C-3 °C93 %1022 hPa16.1 kmCalmClear
6:35 AM-1 °C-3 °C86 %1022.4 hPa16.1 kmCalmClear
6:55 AM-1 °C-3 °C86 %1023 hPa16.1 kmCalmClear
7:15 AM-1 °C-3 °C86 %1023 hPa16.1 kmCalmClear
7:55 AM0 °C-2 °C87 %1023.7 hPa16.1 kmCalmClear
8:15 AM1 °C-1 °C87 %1024 hPa16.1 kmCalmClear
8:35 AM4 °C-2 °C65 %1024.4 hPa16.1 kmSSW (210°)7.4 km/hClear
8:55 AM6 °C-3 °C53 %1024.4 hPa16.1 kmCalmClear
9:15 AM7 °C-3 °C49 %1024.4 hPa16.1 kmSSW (200°)5.6 km/hClear
9:35 AM7 °C-4 °C46 %1024.7 hPa16.1 kmSSW (200°)13 km/hClear
9:55 AM10 °C-4 °C37 %1024.7 hPa16.1 kmSW (230°)11.1 km/hClear
10:15 AM11 °C-5 °C33 %1024.7 hPa16.1 kmSSW (210°)11.1 km/hClear
10:35 AM11 °C-5 °C33 %1024.7 hPa16.1 kmSW (220°)13 km/hClear
10:55 AM12 °C-5 °C30 %1024.4 hPa16.1 kmSW (230°)13 km/h25.9 km/hClear
11:15 AM13 °C-7 °C25 %1024.4 hPa16.1 kmSW (230°)18.5 km/h27.8 km/hClear
11:35 AM14 °C-6 °C25 %1024.4 hPa16.1 kmWSW (250°)13 km/h25.9 km/hClear
11:55 AM14 °C-6 °C25 %1024 hPa16.1 kmSW (220°)11.1 km/h27.8 km/hClear
12:15 PM15 °C-6 °C23 %1023.7 hPa16.1 kmWSW (240°)16.7 km/hClear
12:35 PM16 °C-7 °C20 %1023.4 hPa16.1 kmWSW (240°)14.8 km/hClear
12:55 PM16 °C-6 °C22 %1023.4 hPa16.1 kmWSW (240°)16.7 km/hClear
1:15 PM16 °C-7 °C20 %1022.7 hPa16.1 kmSSW (200°)14.8 km/hClear
1:35 PM17 °C-6 °C20 %1022.7 hPa16.1 kmSSW (210°)18.5 km/hClear
1:55 PM17 °C-6 °C20 %1022.4 hPa16.1 kmWSW (240°)11.1 km/h25.9 km/hClear
2:15 PM17 °C-8 °C18 %1022.4 hPa16.1 kmSW (230°)13 km/h40.7 km/hClear
2:35 PM17 °C-7 °C19 %1022 hPa16.1 kmSSW (210°)11.1 km/h29.6 km/hClear
2:55 PM17 °C-7 °C19 %1022 hPa16.1 kmSW (220°)13 km/h25.9 km/hClear
3:15 PM17 °C-7 °C19 %1021.7 hPa16.1 kmSW (220°)11.1 km/h29.6 km/hClear
3:35 PM17 °C-7 °C19 %1022 hPa16.1 kmSSW (210°)13 km/h25.9 km/hClear
3:55 PM17 °C-7 °C19 %1022 hPa16.1 kmSW (220°)9.3 km/hClear
4:15 PM17 °C-6 °C20 %1021.7 hPa16.1 kmSW (220°)13 km/hClear
4:35 PM17 °C-7 °C19 %1022 hPa16.1 kmSSW (200°)11.1 km/hClear
4:55 PM16 °C-6 °C22 %1022 hPa16.1 kmSSW (200°)13 km/hClear
5:15 PM16 °C-6 °C22 %1021.3 hPa16.1 kmSSW (210°)7.4 km/hClear
5:35 PM15 °C-6 °C23 %1021.7 hPa16.1 kmSW (220°)5.6 km/hClear
5:55 PM14 °C-6 °C25 %1022 hPa16.1 kmSW (220°)5.6 km/hClear
6:15 PM13 °C-5 °C29 %1022 hPa16.1 kmCalmClear
6:35 PM12 °C-5 °C30 %1022.7 hPa16.1 kmCalmClear
6:55 PM12 °C-5 °C30 %1023 hPa16.1 kmCalmClear
7:15 PM9 °C-2 °C46 %1023 hPa16.1 kmCalmClear
7:35 PM10 °C-4 °C37 %1023.4 hPa16.1 kmCalmClear
7:55 PM10 °C-4 °C37 %1023.4 hPa16.1 kmCalmClear
8:15 PM8 °C-2 °C50 %1023.7 hPa16.1 kmCalmClear
8:35 PM7 °C-2 °C53 %1024 hPa16.1 kmCalmClear
8:55 PM6 °C-2 °C57 %1024 hPa16.1 kmCalmClear
9:15 PM6 °C0 °C66 %1024.4 hPa16.1 kmCalmClear
9:35 PM7 °C-1 °C57 %1024 hPa16.1 kmCalmClear
9:55 PM6 °C-1 °C61 %1024 hPa16.1 kmCalmClear
10:15 PM5 °C-1 °C65 %1024.4 hPa16.1 kmCalmClear
10:35 PM6 °C-1 °C61 %1024.7 hPa16.1 kmCalmClear
10:55 PM5 °C-1 °C65 %1024.7 hPa16.1 kmCalmClear
11:15 PM5 °C-1 °C65 %1025.1 hPa16.1 kmCalmClear
11:35 PM5 °C-1 °C65 %1025.1 hPa16.1 kmCalmClear
11:55 PM5 °C-1 °C65 %1025.1 hPa16.1 kmCalmClear
Hourly data recorded from KRFI, located 0 kilometers away from Minden, Texas







STORIES FROM OUR PARTNERS